TimeCST,TemperatureF,Dew PointF,Humidity,Sea Level PressureIn,VisibilityMPH,Wind Direction,Wind SpeedMPH,Gust SpeedMPH,PrecipitationIn,Events,Conditions,WindDirDegrees,DateUTC
12:15 AM,32.0,32.0,100,29.86,7.0,SW,10.4,-,N/A,,Overcast,220,2013-01-06 06:15:00
12:35 AM,32.0,32.0,100,29.86,7.0,SW,10.4,17.3,N/A,,Overcast,230,2013-01-06 06:35:00
12:55 AM,32.0,32.0,100,29.85,7.0,SW,10.4,17.3,N/A,,Overcast,230,2013-01-06 06:55:00
1:35 AM,32.0,30.2,93,29.86,7.0,SW,9.2,-,N/A,,Overcast,230,2013-01-06 07:35:00
1:55 AM,32.0,30.2,93,29.85,7.0,SW,9.2,-,N/A,,Overcast,230,2013-01-06 07:55:00
2:15 AM,32.0,30.2,93,29.86,10.0,WSW,10.4,-,N/A,,Overcast,240,2013-01-06 08:15:00
2:35 AM,32.0,30.2,93,29.86,10.0,West,9.2,-,N/A,,Overcast,260,2013-01-06 08:35:00
2:55 AM,32.0,28.4,87,29.86,10.0,WSW,11.5,-,N/A,,Overcast,250,2013-01-06 08:55:00
3:35 AM,30.2,26.6,86,29.86,10.0,West,13.8,-,N/A,,Overcast,270,2013-01-06 09:35:00
3:55 AM,30.2,26.6,86,29.86,4.0,West,12.7,-,N/A,Snow,Light Snow,270,2013-01-06 09:55:00
4:15 AM,28.4,26.6,93,29.87,5.0,West,11.5,-,N/A,,Overcast,270,2013-01-06 10:15:00
4:35 AM,28.4,26.6,93,29.87,10.0,WNW,12.7,18.4,N/A,,Overcast,290,2013-01-06 10:35:00
5:45 AM,24.8,19.4,80,29.92,10.0,WNW,11.5,-,N/A,,Overcast,300,2013-01-06 11:45:00
6:45 AM,21.2,17.6,86,29.94,10.0,WNW,15.0,-,N/A,,Overcast,290,2013-01-06 12:45:00
7:45 AM,21.2,17.6,86,29.97,10.0,WNW,13.8,-,N/A,,Overcast,290,2013-01-06 13:45:00
8:45 AM,23.0,19.4,86,30.00,10.0,WNW,15.0,-,N/A,,Overcast,290,2013-01-06 14:45:00
9:45 AM,24.8,19.4,80,30.04,10.0,WNW,17.3,-,N/A,,Overcast,300,2013-01-06 15:45:00
10:30 AM,24.8,21.2,86,30.06,10.0,WNW,19.6,24.2,N/A,,Overcast,300,2013-01-06 16:30:00
10:45 AM,24.8,21.2,86,30.06,10.0,WNW,15.0,23.0,N/A,,Overcast,300,2013-01-06 16:45:00
11:05 AM,24.8,21.2,86,30.07,10.0,WNW,12.7,18.4,N/A,,Overcast,300,2013-01-06 17:05:00
11:45 AM,26.6,21.2,80,30.08,10.0,WNW,19.6,-,N/A,,Overcast,290,2013-01-06 17:45:00
1:45 PM,28.4,21.2,74,30.10,10.0,WNW,11.5,18.4,N/A,,Scattered Clouds,300,2013-01-06 19:45:00
2:45 PM,28.4,21.2,74,30.14,10.0,WNW,12.7,18.4,N/A,,Scattered Clouds,290,2013-01-06 20:45:00
3:45 PM,26.6,21.2,80,30.18,10.0,WNW,11.5,-,N/A,,Clear,290,2013-01-06 21:45:00
4:45 PM,24.8,19.4,80,30.21,10.0,West,11.5,-,N/A,,Clear,270,2013-01-06 22:45:00
5:45 PM,23.0,19.4,86,30.24,10.0,West,11.5,-,N/A,,Clear,260,2013-01-06 23:45:00
6:45 PM,21.2,17.6,86,30.25,10.0,West,6.9,-,N/A,,Clear,270,2013-01-07 00:45:00
7:45 PM,21.2,17.6,86,30.26,10.0,SW,4.6,-,N/A,,Clear,220,2013-01-07 01:45:00
8:15 PM,21.2,19.4,93,30.25,10.0,SW,4.6,-,N/A,,Clear,220,2013-01-07 02:15:00
8:35 PM,19.4,17.6,93,30.25,7.0,SSW,4.6,-,N/A,,Clear,210,2013-01-07 02:35:00
8:45 PM,19.4,17.6,93,30.26,10.0,SW,5.8,-,N/A,,Clear,220,2013-01-07 02:45:00
8:55 PM,19.4,17.6,93,30.26,7.0,SSW,6.9,-,N/A,,Clear,210,2013-01-07 02:55:00
9:15 PM,19.4,17.6,93,30.27,7.0,SSW,5.8,-,N/A,,Clear,210,2013-01-07 03:15:00
9:35 PM,17.6,17.6,100,30.27,7.0,SW,3.5,-,N/A,,Clear,230,2013-01-07 03:35:00
9:55 PM,17.6,15.8,93,30.27,7.0,SSW,3.5,-,N/A,,Clear,210,2013-01-07 03:55:00
10:15 PM,17.6,17.6,100,30.27,7.0,SSW,5.8,-,N/A,,Clear,210,2013-01-07 04:15:00
10:55 PM,17.6,15.8,93,30.28,7.0,SW,4.6,-,N/A,,Clear,220,2013-01-07 04:55:00
11:15 PM,17.6,14.0,86,30.28,7.0,SSW,3.5,-,N/A,,Clear,200,2013-01-07 05:15:00
11:35 PM,17.6,14.0,86,30.27,7.0,Calm,Calm,-,N/A,,Clear,0,2013-01-07 05:35:00